Regional Weather Roundup
Issued by NWS

Home | Current Version | Previous Version | Graphics & Text | Print | Product List | Glossary On
Versions: 1 2 3 4 5 6 7 8 9 10 11 12 13 14 15 16 17 18 19 20 21 22 23 24 25 26 27
000
ASUS45 KSLC 220310
RWRUT

UTAH REGIONAL WEATHER ROUNDUP
NATIONAL WEATHER SERVICE SALT LAKE CITY UT
900 PM MDT SAT APR 21 2018

UTZ001>011-023>025-220400-

NORTHERN UTAH

CITY           SKY/WX    TMP DP  RH WIND       PRES   REMARKS
BRIGHAM CITY   CLEAR     62  30  30 CALM      30.14R
HILL AFB       CLEAR     57  26  30 CALM      30.15R
LOGAN          CLEAR     64  38  38 NE5       30.12R
OGDEN          CLEAR     56  27  32 SW7       30.13R
SALT LAKE CITY PTCLDY    61  29  29 CALM      30.13R
TOOELE VALLEY  CLEAR     46  36  66 S6        30.15R
WENDOVER       CLEAR     65  24  21 S7        30.12R
HEBER CITY       N/A     50  21  32 CALM      30.17R
WEST JORDAN    CLEAR     58  27  30 NW5       30.16R

$$

UTZ011>015-024>027-220400-

CENTRAL/NORTHEAST UTAH

CITY           SKY/WX    TMP DP  RH WIND       PRES   REMARKS
PROVO AIRPORT  CLEAR     57  29  34 SE5       30.16R
MOAB/CANYONLAN CLEAR     61  31  32 E7        30.09R
DELTA          CLEAR     55  32  41 S6        30.16R
PRICE          CLEAR     58  25  28 NW8       30.15R
ROOSEVELT      CLEAR     57  34  41 N3        30.14R
VERNAL         CLEAR     55  38  52 MISG      30.12R

$$

UTZ013>016-019>022-027-220400-

SOUTHERN UTAH

CITY           SKY/WX    TMP DP  RH WIND       PRES   REMARKS
BRYCE CANYON   CLEAR     49  23  36 NW12      30.25R
CEDAR CITY     CLEAR     52  31  44 NE6       30.16R
MILFORD        CLEAR     53  35  50 N3        30.16R
ST GEORGE      CLEAR     74  20  13 NE16      30.01R
HANKSVILLE     CLEAR     64  27  24 SE3       30.10R
BLANDING         N/A     51  24  35 N9        30.23R

$$

REGIONAL REPORTS     COLORADO/ARIZONA

CITY           SKY/WX    TMP DP  RH WIND       PRES   REMARKS
CRAIG, CO      CLEAR     45  37  73 SE8       30.18R
GRAND JUNCTION CLEAR     56  35  45 SE13      30.14R
RIFLE, CO      CLEAR     46  40  79 SE8       30.20R
MONTROSE, CO   CLEAR     48  35  60 SE6       30.23R
CORTEZ, CO     CLEAR     50  27  40 NE8       30.18R
COLORADO CITY    N/A     61  19  20 NW8       30.13S
PAGE, AZ       CLEAR     66  28  24 NE6       30.07R
GRAND CANYON   CLEAR     46  28  49 CALM      30.21R
KINGMAN, AZ    PTCLDY    71  24  17 N13       30.03R
FLAGSTAFF, AZ  CLEAR     52  22  30 E6        30.22R

$$

REGIONAL REPORTS    NEVADA/IDAHO/WYOMING

CITY           SKY/WX    TMP DP  RH WIND       PRES   REMARKS
LAS VEGAS, NV  MOCLDY    81  27  14 SE3       29.97R
ELY, NY        MOCLDY    55  18  23 CALM      30.17R
ELKO, NV       CLEAR     57  32  38 SW6       30.14R
POCATELLO, ID  CLEAR     60  32  34 SW14      30.11R
BURLEY, ID     CLEAR     56  33  42 W9        30.11R
FORT BRIDGER,    N/A     49  24  37 W9        30.24R
EVANSTON, WY   CLEAR     48  26  42 W9        30.23R
ROCK SPRINGS,  CLEAR     53  20  27 W8        30.14R
KEMMERER, WY   CLEAR     46  25  42 W10G17    30.20S

$$




USA.gov is the U.S. government's official web portal to all federal, state and local government web resources and services.